TimePDT,TemperatureF,Dew PointF,Humidity,Sea Level PressureIn,VisibilityMPH,Wind Direction,Wind SpeedMPH,Gust SpeedMPH,PrecipitationIn,Events,Conditions,WindDirDegrees,DateUTC
12:53 AM,57.9,54.0,87,30.06,6.0,Calm,Calm,-,N/A,,Mostly Cloudy,0,2013-09-05 07:53:00
1:06 AM,57.2,53.6,88,30.06,2.5,NE,3.5,-,N/A,,Mostly Cloudy,40,2013-09-05 08:06:00
1:10 AM,57.2,53.6,88,30.06,1.2,ENE,4.6,-,N/A,,Mostly Cloudy,60,2013-09-05 08:10:00
1:12 AM,57.2,53.6,88,30.06,0.8,ENE,3.5,-,N/A,,Mostly Cloudy,70,2013-09-05 08:12:00
1:24 AM,57.2,53.6,88,30.05,0.5,Calm,Calm,-,N/A,Fog,Fog,0,2013-09-05 08:24:00
1:41 AM,57.2,55.4,94,30.05,0.2,East,5.8,-,N/A,Fog,Fog,90,2013-09-05 08:41:00
1:53 AM,57.9,55.0,90,30.05,0.2,East,3.5,-,N/A,Fog,Fog,80,2013-09-05 08:53:00
2:02 AM,57.2,53.6,88,30.04,0.5,Calm,Calm,-,N/A,Fog,Fog,0,2013-09-05 09:02:00
2:11 AM,57.2,53.6,88,30.05,0.2,Calm,Calm,-,N/A,Fog,Fog,0,2013-09-05 09:11:00
2:17 AM,57.2,53.6,88,30.04,0.8,Calm,Calm,-,N/A,,Mist,0,2013-09-05 09:17:00
2:20 AM,55.4,53.6,94,30.04,1.5,Calm,Calm,-,N/A,,Mostly Cloudy,0,2013-09-05 09:20:00
2:23 AM,55.4,51.8,88,30.04,0.8,Calm,Calm,-,N/A,,Mist,0,2013-09-05 09:23:00
2:39 AM,55.4,53.6,94,30.04,1.0,Calm,Calm,-,N/A,,Mist,0,2013-09-05 09:39:00
2:45 AM,55.4,53.6,94,30.04,0.8,Calm,Calm,-,N/A,,Mist,0,2013-09-05 09:45:00
2:51 AM,55.4,53.6,94,30.03,1.5,Calm,Calm,-,N/A,,Mostly Cloudy,0,2013-09-05 09:51:00
2:52 AM,55.9,53.1,90,30.03,1.8,Calm,Calm,-,N/A,,Mostly Cloudy,0,2013-09-05 09:52:00
2:59 AM,55.4,51.8,88,30.03,2.5,NNW,3.5,-,N/A,,Mostly Cloudy,330,2013-09-05 09:59:00
3:09 AM,55.4,51.8,88,30.03,3.0,Calm,Calm,-,N/A,,Scattered Clouds,0,2013-09-05 10:09:00
3:15 AM,55.4,51.8,88,30.02,1.8,Calm,Calm,-,N/A,,Partly Cloudy,0,2013-09-05 10:15:00
3:17 AM,55.4,51.8,88,30.02,1.0,Calm,Calm,-,N/A,,Mist,0,2013-09-05 10:17:00
3:24 AM,55.4,51.8,88,30.01,0.8,NNW,3.5,-,N/A,,Mist,330,2013-09-05 10:24:00
3:27 AM,55.4,51.8,88,30.01,1.5,NNW,3.5,-,N/A,,Partly Cloudy,340,2013-09-05 10:27:00
3:29 AM,55.4,51.8,88,30.02,3.0,Calm,Calm,-,N/A,,Partly Cloudy,0,2013-09-05 10:29:00
3:50 AM,55.4,51.8,88,30.03,1.5,ESE,4.6,-,N/A,,Scattered Clouds,120,2013-09-05 10:50:00
3:53 AM,55.0,52.0,89,30.03,1.0,ESE,3.5,-,N/A,,Mist,120,2013-09-05 10:53:00
4:01 AM,55.4,51.8,88,30.03,0.5,Calm,Calm,-,N/A,Fog,Fog,0,2013-09-05 11:01:00
4:08 AM,55.4,53.6,94,30.03,0.2,Calm,Calm,-,N/A,Fog,Fog,0,2013-09-05 11:08:00
4:53 AM,55.0,52.0,89,30.04,0.5,Calm,Calm,-,N/A,Fog,Fog,0,2013-09-05 11:53:00
4:58 AM,55.4,51.8,88,30.05,1.5,Calm,Calm,-,N/A,,Mostly Cloudy,0,2013-09-05 11:58:00
5:01 AM,55.4,51.8,88,30.05,3.0,Calm,Calm,-,N/A,,Mostly Cloudy,0,2013-09-05 12:01:00
5:06 AM,55.4,53.6,94,30.05,1.8,Calm,Calm,-,N/A,,Mostly Cloudy,0,2013-09-05 12:06:00
5:15 AM,55.4,53.6,94,30.04,3.0,Calm,Calm,-,N/A,,Mostly Cloudy,0,2013-09-05 12:15:00
5:53 AM,55.9,53.1,90,30.04,6.0,Calm,Calm,-,N/A,,Scattered Clouds,0,2013-09-05 12:53:00
6:53 AM,57.0,54.0,89,30.01,8.0,Calm,Calm,-,0.00,,Mostly Cloudy,0,2013-09-05 13:53:00
7:06 AM,57.2,53.6,88,30.02,7.0,Calm,Calm,-,0.01,,Scattered Clouds,0,2013-09-05 14:06:00
7:53 AM,57.9,55.0,90,30.04,6.0,Calm,Calm,-,0.01,,Scattered Clouds,0,2013-09-05 14:53:00
8:53 AM,62.1,57.0,84,30.04,7.0,West,5.8,-,N/A,,Clear,270,2013-09-05 15:53:00
9:43 AM,62.6,57.2,82,30.05,6.0,ESE,5.8,-,N/A,,Mostly Cloudy,120,2013-09-05 16:43:00
9:53 AM,62.1,57.9,86,30.04,7.0,Calm,Calm,-,N/A,,Overcast,0,2013-09-05 16:53:00
10:53 AM,64.9,59.0,81,30.04,8.0,Calm,Calm,-,N/A,,Clear,0,2013-09-05 17:53:00
11:53 AM,68.0,60.1,76,30.04,8.0,Calm,Calm,-,N/A,,Partly Cloudy,0,2013-09-05 18:53:00
12:53 PM,68.0,61.0,78,30.00,7.0,North,3.5,-,0.00,Rain,Light Rain,350,2013-09-05 19:53:00
1:53 PM,71.1,62.1,73,30.00,7.0,West,5.8,-,0.00,,Clear,280,2013-09-05 20:53:00
2:53 PM,77.0,62.1,60,29.99,8.0,WNW,8.1,-,N/A,,Clear,290,2013-09-05 21:53:00
3:53 PM,77.0,59.0,54,29.98,9.0,WNW,10.4,-,N/A,,Clear,300,2013-09-05 22:53:00
4:53 PM,75.9,59.0,56,29.96,10.0,NW,8.1,-,N/A,,Clear,320,2013-09-05 23:53:00
5:53 PM,75.0,59.0,57,29.96,10.0,NNW,9.2,-,N/A,,Clear,330,2013-09-06 00:53:00
6:53 PM,72.0,57.9,61,29.96,10.0,NW,8.1,-,N/A,,Clear,310,2013-09-06 01:53:00
7:53 PM,66.0,55.9,70,29.97,9.0,NW,4.6,-,N/A,,Clear,320,2013-09-06 02:53:00
8:53 PM,62.1,55.9,80,29.96,10.0,West,5.8,-,N/A,,Clear,280,2013-09-06 03:53:00
9:53 PM,61.0,55.0,81,29.97,10.0,NE,3.5,-,N/A,,Clear,40,2013-09-06 04:53:00
10:53 PM,59.0,54.0,83,29.97,9.0,Calm,Calm,-,N/A,,Clear,0,2013-09-06 05:53:00
11:39 PM,57.2,53.6,88,29.95,8.0,West,4.6,-,N/A,,Scattered Clouds,270,2013-09-06 06:39:00
11:53 PM,60.1,55.9,86,29.94,7.0,West,6.9,-,N/A,,Mostly Cloudy,260,2013-09-06 06:53:00